TimeCST,TemperatureF,Dew PointF,Humidity,Sea Level PressureIn,VisibilityMPH,Wind Direction,Wind SpeedMPH,Gust SpeedMPH,PrecipitationIn,Events,Conditions,WindDirDegrees,DateUTC
12:00 AM,70,69,94,29.86,12,Calm,Calm,,,,Haze,,2012-10-27 06:00:00
12:00 AM,69.8,68.0,94,29.86,6.2,Calm,Calm,-,N/A,,Partly Cloudy,0,2012-10-27 06:00:00
6:00 AM,70,68,90,29.86,12,Calm,Calm,,,,Haze,,2012-10-27 12:00:00
6:00 AM,69.8,68.0,94,29.86,6.2,Calm,Calm,-,N/A,,Scattered Clouds,0,2012-10-27 12:00:00
7:00 AM,73.4,69.8,88,29.86,6.2,Calm,Calm,-,N/A,,Partly Cloudy,0,2012-10-27 13:00:00
8:00 AM,80.6,69.8,70,29.89,6.2,SW,2.3,-,N/A,,Partly Cloudy,230,2012-10-27 14:00:00
9:00 AM,83,69,55,29.92,12,West,6.9,,,,Haze,270,2012-10-27 15:00:00
9:00 AM,82.4,69.8,66,29.92,6.2,West,6.9,-,N/A,,Mostly Cloudy,270,2012-10-27 15:00:00
10:00 AM,84.2,69.8,62,29.92,6.2,West,6.9,-,N/A,,Mostly Cloudy,260,2012-10-27 16:00:00
11:00 AM,84.2,71.6,66,29.89,6.2,West,5.8,-,N/A,,Mostly Cloudy,270,2012-10-27 17:00:00
12:00 PM,84,74,64,29.89,11,WNW,8.1,,,,Haze,290,2012-10-27 18:00:00
12:00 PM,84.2,73.4,70,29.89,6.2,WNW,8.1,-,N/A,,Scattered Clouds,290,2012-10-27 18:00:00
1:00 PM,84.2,73.4,70,29.86,6.2,North,11.5,-,N/A,,Scattered Clouds,350,2012-10-27 19:00:00
2:00 PM,86.0,73.4,66,29.83,6.2,WNW,8.1,-,N/A,,Scattered Clouds,300,2012-10-27 20:00:00
3:00 PM,85,73,60,29.83,10,WNW,9.2,,,,Haze,290,2012-10-27 21:00:00
3:00 PM,84.2,73.4,70,29.83,6.2,WNW,9.2,-,N/A,,Scattered Clouds,290,2012-10-27 21:00:00
4:00 PM,84.2,73.4,70,29.83,6.2,West,8.1,-,N/A,,Scattered Clouds,280,2012-10-27 22:00:00
5:00 PM,82.4,71.6,70,29.83,6.2,WSW,85.2,-,N/A,,Scattered Clouds,240,2012-10-27 23:00:00
6:00 PM,79,72,75,29.87,7,SSW,2.3,,,,Haze,200,2012-10-28 00:00:00
6:00 PM,78.8,71.6,78,29.86,6.2,SSW,2.3,-,N/A,,Mostly Cloudy,200,2012-10-28 00:00:00
7:00 PM,75.2,71.6,89,29.86,6.2,South,3.5,-,N/A,,Partly Cloudy,170,2012-10-28 01:00:00
8:00 PM,73.4,69.8,88,29.89,6.2,SE,2.3,-,N/A,,Partly Cloudy,140,2012-10-28 02:00:00
9:00 PM,72,68,82,29.93,8,SSE,2.3,,,,Haze,150,2012-10-28 03:00:00
9:00 PM,71.6,68.0,88,29.92,6.2,SSE,2.3,-,N/A,,Partly Cloudy,150,2012-10-28 03:00:00